Retour au catalogue

JITIANXING A-03 XING

ActifScienceSSO
NORAD 60748·PAYLOAD·🇨🇳 China
Ce nom de satellite n'a pas encore été confirmé par des sources officielles.

Lancé Aug 29, 2024 depuis Yellow Sea Launch Area

Loading…

Prochains Passages (prochaines 24 heures)

TLE

FraisSource: Space-Track

Époque: Sep 14, 2026, 22:53 UTC

1 60748U 24153D   26257.95369140  .00016275  00000-0  55936-3 0  9991
2 60748  97.6909  38.7720 0001026 208.2234 151.8951 15.30186219113566

Suivez JITIANXING A-03 XING en temps réel avec AllMySat

Download on the App Store